{"data":{"norad_id":45780,"intl_designator":"2020-038BC","name":"STARLINK-1496","alt_names":[],"object_type":"PAYLOAD","status":"ACTIVE","operator":null,"country":"US","launch_date":"2020-06-13","launch_site_code":"AFETR","launch_vehicle":null,"mission":null,"orbit_class":"UNKNOWN","rcs_meters":null,"size_class":null,"mass_kg":null,"dimensions":null,"purposes":["comms"],"wikipedia_slug":null,"has_3d_model":false,"image_url":null,"decayed_at":null,"tle_current":{"epoch":"2026-09-20T06:00:02.000160Z","epoch_age_seconds":43610,"freshness":"FRESH","line1":"1 45780U 20038BC  26263.25002315  .00078024  00000+0  31113-3 0  9996","line2":"2 45780  53.0377 300.1061 0003933   3.7611  35.4441 15.85938267  5918","mean_motion":15.85938267,"eccentricity":0.0003933,"inclination_deg":53.0377,"raan_deg":300.1061,"arg_perigee_deg":3.7611,"mean_anomaly_deg":35.4441,"bstar":0.00031113,"rev_number":591,"period_min":90.797985644419,"perigee_km":311.05221437076,"apogee_km":316.31600085401,"semimajor_km":6691.8211076124,"source":"CELESTRAK","updated_at":"2026-09-20T09:00:38.458561Z"}}}